When you browse on this site, cookies collect data to enhance your experience and personalize the content and advertising you see.
Visit our Privacy Policy to learn more. By continuing to use the site, you agree to this use of cookies and data.
  • In Germany
  • List of Countries
  • For 7 days
  • Water Temperature
  • Weather Map
  • Weather Widgets
  • user-avatar
    Login

    Hourly Weather Berlin

    Today, 1 June, Monday

    Time Temperature Precipitation Wind Pressure Humidity
    00:00 +10°C° 0 mm 3 mps 764 mmHg 76%
    01:00 +10°C° 0 mm 3 mps 764 mmHg 82%
    02:00 +9°C° 0 mm 3 mps 764 mmHg 84%
    03:00 +8°C° 0 mm 3 mps 764 mmHg 87%
    04:00 +8°C° 0 mm 2 mps 763 mmHg 89%
    05:00 +9°C° 0 mm 2 mps 764 mmHg 82%
    06:00 +11°C° 0 mm 3 mps 764 mmHg 76%
    07:00 +13°C° 0 mm 3 mps 764 mmHg 68%
    08:00 +16°C° 0 mm 3 mps 764 mmHg 61%
    09:00 +18°C° 0 mm 3 mps 764 mmHg 53%
    10:00 +20°C° 0 mm 4 mps 764 mmHg 46%
    11:00 +21°C° 0 mm 4 mps 764 mmHg 43%
    12:00 +22°C° 0 mm 4 mps 764 mmHg 41%
    13:00 +23°C° 0 mm 4 mps 764 mmHg 37%
    14:00 +23°C° 0 mm 5 mps 764 mmHg 39%
    15:00 +23°C° 0 mm 5 mps 764 mmHg 41%
    16:00 +23°C° 0 mm 5 mps 763 mmHg 42%
    17:00 +22°C° 0 mm 5 mps 763 mmHg 47%
    18:00 +21°C° 0 mm 4 mps 763 mmHg 52%
    19:00 +19°C° 0 mm 4 mps 763 mmHg 57%
    20:00 +18°C° 0 mm 4 mps 763 mmHg 61%
    21:00 +16°C° 0 mm 3 mps 763 mmHg 65%
    22:00 +13°C° 0 mm 3 mps 763 mmHg 69%
    23:00 +12°C° 0 mm 3 mps 763 mmHg 69%

    Tomorrow, 2 June, Tuesday

    Time Temperature Precipitation Wind Pressure Humidity
    00:00 +13°C° 0 mm 2 mps 763 mmHg 70%
    01:00 +12°C° 0 mm 2 mps 763 mmHg 71%
    02:00 +12°C° 0 mm 2 mps 763 mmHg 72%
    03:00 +10°C° 0 mm 2 mps 763 mmHg 73%
    04:00 +11°C° 0 mm 1 mps 763 mmHg 75%
    05:00 +13°C° 0 mm 1 mps 763 mmHg 69%
    06:00 +14°C° 0 mm 2 mps 762 mmHg 64%
    07:00 +16°C° 0 mm 2 mps 762 mmHg 59%
    08:00 +18°C° 0 mm 2 mps 762 mmHg 55%
    09:00 +20°C° 0 mm 2 mps 762 mmHg 50%
    10:00 +23°C° 0 mm 2 mps 761 mmHg 46%
    11:00 +24°C° 0 mm 2 mps 761 mmHg 44%
    12:00 +25°C° 0 mm 2 mps 760 mmHg 41%
    13:00 +26°C° 0 mm 2 mps 760 mmHg 39%
    14:00 +26°C° 0 mm 2 mps 759 mmHg 43%
    15:00 +25°C° 0 mm 2 mps 759 mmHg 47%
    16:00 +24°C° 0 mm 2 mps 758 mmHg 51%
    17:00 +24°C° 0.3 mm 2 mps 758 mmHg 55%
    18:00 +22°C° 0.3 mm 3 mps 757 mmHg 60%
    19:00 +21°C° 0.3 mm 3 mps 757 mmHg 64%
    20:00 +19°C° 0 mm 3 mps 757 mmHg 70%
    21:00 +18°C° 0 mm 2 mps 757 mmHg 77%
    22:00 +16°C° 0 mm 2 mps 756 mmHg 84%
    23:00 +16°C° 0 mm 2 mps 756 mmHg 85%

    Day after tomorrow, 3 June, Wednesday

    Time Temperature Precipitation Wind Pressure Humidity
    00:00 +15°C° 0 mm 1 mps 756 mmHg 86%
    01:00 +14°C° 0 mm 1 mps 755 mmHg 87%
    02:00 +14°C° 0 mm 1 mps 755 mmHg 87%
    03:00 +13°C° 0 mm 1 mps 754 mmHg 87%
    04:00 +13°C° 0 mm 1 mps 754 mmHg 87%
    05:00 +14°C° 0 mm 1 mps 754 mmHg 80%
    06:00 +16°C° 0 mm 1 mps 753 mmHg 74%
    07:00 +18°C° 0 mm 1 mps 753 mmHg 68%
    08:00 +20°C° 0 mm 1 mps 753 mmHg 60%
    09:00 +22°C° 0 mm 1 mps 753 mmHg 53%
    10:00 +23°C° 0 mm 1 mps 752 mmHg 45%
    11:00 +24°C° 0 mm 2 mps 752 mmHg 43%
    12:00 +25°C° 0 mm 2 mps 751 mmHg 41%
    13:00 +26°C° 0 mm 2 mps 751 mmHg 39%
    14:00 +25°C° 0.1 mm 2 mps 751 mmHg 43%
    15:00 +25°C° 0.1 mm 3 mps 750 mmHg 46%
    16:00 +25°C° 0.1 mm 3 mps 750 mmHg 49%
    17:00 +22°C° 0.2 mm 3 mps 749 mmHg 53%
    18:00 +21°C° 0.2 mm 3 mps 749 mmHg 57%
    19:00 +20°C° 0.2 mm 3 mps 749 mmHg 61%
    20:00 +18°C° 0.1 mm 3 mps 749 mmHg 63%
    21:00 +17°C° 0.1 mm 3 mps 749 mmHg 65%
    22:00 +14°C° 0.1 mm 3 mps 749 mmHg 67%
    23:00 +14°C° 0 mm 3 mps 749 mmHg 69%

    4 June, Thursday

    Time Temperature Precipitation Wind Pressure Humidity
    00:00 +13°C° 0 mm 3 mps 748 mmHg 71%
    01:00 +13°C° 0 mm 3 mps 748 mmHg 73%
    02:00 +12°C° 0 mm 3 mps 747 mmHg 73%
    03:00 +12°C° 0 mm 3 mps 747 mmHg 73%
    04:00 +12°C° 0 mm 3 mps 746 mmHg 73%
    05:00 +13°C° 0 mm 4 mps 746 mmHg 68%
    06:00 +14°C° 0 mm 4 mps 746 mmHg 64%
    07:00 +16°C° 0 mm 5 mps 745 mmHg 59%
    08:00 +17°C° 0 mm 5 mps 745 mmHg 55%
    09:00 +20°C° 0 mm 6 mps 744 mmHg 51%
    10:00 +21°C° 0 mm 6 mps 744 mmHg 47%
    11:00 +21°C° 0.2 mm 6 mps 743 mmHg 50%
    12:00 +21°C° 0.2 mm 5 mps 743 mmHg 54%
    13:00 +21°C° 0.2 mm 5 mps 743 mmHg 57%
    14:00 +20°C° 0.3 mm 5 mps 742 mmHg 63%
    15:00 +20°C° 0.3 mm 4 mps 742 mmHg 69%
    16:00 +19°C° 0.3 mm 4 mps 741 mmHg 75%
    17:00 +19°C° 0.1 mm 4 mps 741 mmHg 75%
    18:00 +19°C° 0.1 mm 4 mps 741 mmHg 75%
    19:00 +19°C° 0.1 mm 3 mps 740 mmHg 74%
    20:00 +18°C° 0.5 mm 3 mps 740 mmHg 79%
    21:00 +17°C° 0.5 mm 3 mps 741 mmHg 83%
    22:00 +17°C° 0.5 mm 3 mps 741 mmHg 88%
    23:00 +16°C° 0.8 mm 3 mps 741 mmHg 90%

    5 June, Friday

    Time Temperature Precipitation Wind Pressure Humidity
    00:00 +16°C° 0.8 mm 2 mps 740 mmHg 91%
    01:00 +15°C° 0.8 mm 2 mps 740 mmHg 93%
    02:00 +14°C° 1.6 mm 3 mps 740 mmHg 94%
    03:00 +13°C° 1.6 mm 3 mps 740 mmHg 94%
    04:00 +13°C° 1.6 mm 4 mps 740 mmHg 94%
    05:00 +12°C° 1.2 mm 4 mps 741 mmHg 93%
    06:00 +11°C° 1.2 mm 4 mps 741 mmHg 91%
    07:00 +10°C° 1.2 mm 5 mps 741 mmHg 90%
    08:00 +10°C° 0.3 mm 5 mps 742 mmHg 88%
    09:00 +11°C° 0.3 mm 4 mps 742 mmHg 85%
    10:00 +12°C° 0.3 mm 4 mps 743 mmHg 83%
    11:00 +13°C° 0 mm 4 mps 743 mmHg 77%
    12:00 +14°C° 0 mm 4 mps 744 mmHg 71%
    13:00 +14°C° 0 mm 4 mps 744 mmHg 65%
    14:00 +15°C° 0 mm 4 mps 744 mmHg 60%
    15:00 +17°C° 0 mm 4 mps 744 mmHg 55%
    16:00 +17°C° 0 mm 4 mps 744 mmHg 50%
    17:00 +17°C° 0 mm 4 mps 745 mmHg 53%
    18:00 +16°C° 0 mm 3 mps 745 mmHg 56%
    19:00 +16°C° 0 mm 2 mps 745 mmHg 59%
    20:00 +15°C° 0 mm 2 mps 745 mmHg 62%
    21:00 +13°C° 0 mm 3 mps 746 mmHg 66%
    22:00 +11°C° 0 mm 3 mps 746 mmHg 69%
    23:00 +11°C° 0 mm 3 mps 747 mmHg 73%

    6 June, Saturday

    Time Temperature Precipitation Wind Pressure Humidity
    00:00 +10°C° 0 mm 3 mps 747 mmHg 78%
    01:00 +9°C° 0 mm 3 mps 747 mmHg 82%
    02:00 +9°C° 0 mm 3 mps 747 mmHg 84%
    03:00 +8°C° 0 mm 3 mps 747 mmHg 85%
    04:00 +8°C° 0 mm 3 mps 748 mmHg 86%
    05:00 +9°C° 0 mm 3 mps 748 mmHg 77%
    06:00 +10°C° 0 mm 4 mps 748 mmHg 68%
    07:00 +12°C° 0 mm 4 mps 749 mmHg 59%
    08:00 +13°C° 0 mm 4 mps 749 mmHg 55%
    09:00 +14°C° 0 mm 4 mps 749 mmHg 50%
    10:00 +16°C° 0 mm 5 mps 749 mmHg 46%
    11:00 +16°C° 0.1 mm 5 mps 749 mmHg 48%
    12:00 +16°C° 0.1 mm 5 mps 749 mmHg 51%
    13:00 +17°C° 0.1 mm 5 mps 749 mmHg 53%
    14:00 +17°C° 0.1 mm 5 mps 749 mmHg 51%
    15:00 +19°C° 0.1 mm 4 mps 748 mmHg 49%
    16:00 +20°C° 0.1 mm 4 mps 748 mmHg 46%
    17:00 +19°C° 0 mm 4 mps 748 mmHg 51%
    18:00 +19°C° 0 mm 3 mps 748 mmHg 55%
    19:00 +18°C° 0 mm 3 mps 748 mmHg 59%
    20:00 +17°C° 0 mm 3 mps 749 mmHg 64%
    21:00 +14°C° 0 mm 3 mps 749 mmHg 70%
    22:00 +13°C° 0 mm 3 mps 749 mmHg 76%
    23:00 +13°C° 0 mm 3 mps 749 mmHg 78%
    Show more